Погода в Моргунове

Россия / Калининградская область     54°49′06″N   20°47′35″E
темп.,
°C
ветер,
м/с
пор.,
м/с
влажн.,
%
обл.,
%
осадки,
мм/ч
давл.,
гПа
погр.,
м
16 июня, ср
ср1623:00+9зсз22925 0.0 101923
02:00+9зюз229195 0.0 102011
05:00+10юз229148 0.0 101914
08:00+15юз22755 0.0 1020353
11:00+19зюз115724 0.0 10211305
14:00+21ссз22568 0.0 10201446
17:00+19с42672 0.0 1020600
20:00+15ссв23815 0.0 102154
17 июня, чт
чт1723:00+11всв22865 0.0 102210
02:00+10вюв33900 0.0 102231
05:00+11юв34920 0.0 102257
08:00+17юв35745 0.0 1023310
11:00+21юв45625 0.0 1023886
14:00+23ююв565643 0.0 10221213
17:00+23юв46625 0.0 1022986
20:00+20вюв37785 0.0 1022134
18 июня, пт
пт1823:00+16ююв47875 0.0 1022113
02:00+14ююв37912 0.0 102299
05:00+14ююв39925 0.0 1022162
08:00+20ююв48750 0.0 1022360
11:00+24ю57615 0.0 1021997
14:00+27ююв57575 0.0 10201673
17:00+27ююв58645 0.0 10191442
20:00+24ююв49810 0.1 1019226
19 июня, сб
сб1923:00+19ююв411900 0.0 1019195
02:00+18ююв411934 0.0 1019204
05:00+17ююв411955 0.0 1019224
08:00+22ююв58785 0.0 1019396
11:00+26ююв67675 0.0 1019987
14:00+28ююв67575 0.0 10171545
17:00+28ююв47635 0.0 10161190
20:00+25ююв36805 0.0 1016123
20 июня, вс
вс2023:00+21ю49872 0.0 1017163
02:00+20ююв4118999 0.0 1016202
05:00+19ю3892100 0.0 1017173
08:00+23ююз4679100 0.0 1017414
11:00+26ю5775100 0.8 1016727
14:00+25ю3582100 3.8 1017592
17:00+27ю2471100 0.7 1016826
20:00+24ююв12800 1.2 101513